User: anonymous   Login
Location: Peebles
(55.6412°N, 3.1714°W)
Time: 03:43:46
(UTC+00:00)
Language:

Cosmos 1777 Rocket - Orbit

View from above orbital plane
View from above orbital plane
View from above satellite
View from above satellite

Ground track
Ground track

The orbit data is extracted from the following two-line orbital elements,

1 16953U 86070B   21333.75876277 -.00000039  00000-0 -42796-5 0  9993
2 16953  74.0087 159.1087 0012451 347.4094  12.6746 14.37450236845511
Epoch (UTC): 29 November 2021 18:12:37
Eccentricity: 0.0012451
inclination: 74.0087°
perigee height: 758 km
apogee height: 776 km
right ascension of ascending node: 159.1087°
argument of perigee: 347.4094°
revolutions per day: 14.37450236
mean anomaly at epoch: 12.6746°
orbit number at epoch: 84551

The dashed part of the orbit path shows where the satellite is in the earth's shadow,  

DLR